Flag for Brazil Weather past 2 weeks in Santos, São Paulo, Brazil

Now
72 °F

Sunny.


Feels Like: 72 °F
Forecast: 79 / 96 °F
Wind: 1 mph from Northeast

Location: Sao Paulo Airport

Current Time: Jan 28, 2015 at 7:59:38 AM

Latest Report: Jan 28, 2015 at 7:00 AM


Visibility: 10 mi

Pressure: 30.07 "Hg

Humidity: 78%

Dew point: 64 °F

Location of SantosLocation

Historic Weather in Santos — Graph

°F

Santos temperature yesterday

Maximum temperature yesterday: 82 °F (at 5:00 PM)
Minimum temperature yesterday: 36 °F (at 11:00 PM)
Average temperature yesterday: 73 °F

Past Weeks' High & Low Weather Summary

 TemperatureHumidityPressure
High95 °F (Jan 17, 4:00 PM)100% (Jan 22, 12:00 AM)30.15 "Hg (Jan 22, 12:00 AM)
Low34 °F (Jan 22, 12:00 AM)23% (Jan 19, 3:00 PM)29.95 "Hg (Jan 20, 4:00 PM)
Average76 °F68%30.07 "Hg
* Reported Jan 13 7:00 AM — Jan 28 7:00 AM, Santos, Weather by CustomWeather, © 2014

Note: Actual official high and low records may vary slightly from our data, if they occured in-between our weather recording intervals... More about our weather records

Advertising

Santos weather history for previous 24 hours

 ConditionsComfort  
Time TempWeatherWind HumidityBarometerVisibility
7:00 AM
Jan 28
72 °FSunny.1 mph78%30.07 "Hg10 mi
6:00 AM72 °FClear.3 mph78%30.04 "Hg10 mi
5:00 AM72 °FClear.6 mph78%30.04 "Hg10 mi
4:00 AM72 °FClear.6 mph78%30.04 "Hg10 mi
3:00 AM72 °FClear.8 mph78%30.07 "HgN/A
2:00 AM72 °FClear.5 mph83%30.07 "Hg10 mi
1:00 AM70 °FClear.3 mph88%30.09 "Hg10 mi
12:00 AM70 °FThundershowers. Passing clouds.7 mph83%30.09 "HgN/A
11:00 PM
Jan 27
36 °FThunderstorms. Partly cloudy.12 mph100%30.09 "HgN/A
10:00 PM72 °FThunderstorms. Passing clouds.6 mph83%N/A6 mi
9:00 PM70 °FStrong thunderstorms. Fog.12 mph88%30.07 "Hg1 mi
8:00 PM77 °FThunderstorms. Passing clouds.5 mph69%30.01 "Hg6 mi
7:00 PM77 °FPartly sunny.6 mph69%30.01 "HgN/A
6:00 PM82 °FScattered clouds.5 mph51%29.98 "HgN/A
5:00 PM82 °FScattered clouds.6 mph51%30.01 "HgN/A
4:00 PM81 °FPartly sunny.7 mph58%30.04 "HgN/A
3:00 PM81 °FPartly sunny.10 mph54%30.07 "HgN/A
2:00 PM81 °FScattered clouds.12 mph54%30.09 "HgN/A
1:00 PM81 °FPassing clouds.12 mph58%30.09 "HgN/A
12:00 PM81 °FScattered clouds.9 mph54%30.12 "HgN/A
11:00 AM79 °FSunny.13 mph58%30.12 "Hg10 mi
10:00 AM75 °FSunny.9 mph65%30.12 "Hg10 mi
9:00 AM73 °FSunny.10 mph69%30.09 "Hg10 mi
8:00 AM72 °FSunny.6 mph78%30.09 "Hg10 mi
7:00 AM70 °FSunny.8 mph78%30.07 "Hg10 mi
Weather by CustomWeather, © 2014

See weather overviewHow to use our weather pages